D3121 Weather Reports


time (UTC)temp
C
wind
direction
speed
KPH
gust
KPH
rain 1hr
cm
rain 24hr
cm
rain mn
cm
humidity
%
barometer
mb
20260506205117 14 0.0 1.6 0.05 0.61 0.56 96 1003.6
20260506204118 14 0 1.6 4.8 0.03 0.58 0.53 96 1003.5
20260506203118 14 225 1.6 3.2 0.03 0.58 0.53 96 1003.6
20260506202117 13 0.0 1.6 0.03 0.58 0.53 96 1003.5
20260506201118 13 0.0 0.0 0.00 0.56 0.51 96 1003.6
20260506200118 13 0.0 0.0 0.08 0.56 0.51 95 1003.7
20260506195117 13 0.0 0.0 0.13 0.56 0.51 94 1003.7
20260506194117 13 0.0 0.0 0.15 0.56 0.51 94 1003.9
20260506193117 13 0.0 1.6 0.18 0.56 0.51 93 1004.1
20260506192117 14 0.0 0.0 0.18 0.56 0.51 95 1004.2
20260506191117 14 90 1.6 3.2 0.20 0.56 0.51 95 1004.3
20260506190118 13 0.0 0.0 0.13 0.48 0.43 94 1004.4
20260506185117 14 0.0 0.0 0.10 0.43 0.38 94 1004.6
20260506184117 14 0.0 0.0 0.13 0.41 0.36 94 1004.7
20260506183117 14 0.0 0.0 0.15 0.38 0.33 94 1004.8
20260506182116 14 0.0 0.0 0.18 0.38 0.33 94 1004.8
20260506181117 14 0.0 0.0 0.20 0.36 0.30 94 1005.2
20260506180117 15 0.0 0.0 0.23 0.36 0.30 94 1005.5
20260506175117 15 0.0 0.0 0.23 0.33 0.28 94 1005.7
20260506174117 15 23 1.6 4.8 0.20 0.28 0.23 93 1005.8
20260506173117 15 0.0 1.6 0.18 0.23 0.18 93 1005.8
20260506172117 15 0.0 1.6 0.15 0.20 0.15 93 1005.8
20260506171116 15 0.0 1.6 0.10 0.15 0.10 92 1005.8
20260506170118 15 0.0 1.6 0.08 0.13 0.08 92 1005.9
20260506165138 15 0.0 1.6 0.05 0.10 0.05 90 1005.9
20260506164117 15 293 1.6 3.2 0.03 0.08 0.03 90 1006.0
20260506163117 15 0.0 1.6 0.00 0.05 0.00 87 1006.0
20260506162117 15 0.0 1.6 0.00 0.05 0.00 86 1006.0
20260506161117 16 0.0 0.0 0.00 0.05 0.00 85 1006.2
20260506160117 16 0.0 1.6 0.00 0.05 0.00 84 1006.3
20260506155117 16 338 1.6 3.2 0.00 0.05 0.00 84 1006.5
20260506154117 16 90 1.6 3.2 0.00 0.05 0.00 84 1006.8
20260506153117 16 0.0 0.0 0.00 0.05 0.00 83 1007.0
20260506152117 16 45 1.6 3.2 0.00 0.05 0.00 82 1007.2
20260506151118 16 248 1.6 3.2 0.00 0.05 0.00 83 1007.2
20260506150117 16 158 3.2 6.4 0.00 0.05 0.00 82 1007.2
20260506145118 15 0.0 1.6 0.00 0.05 0.00 83 1006.9
20260506144117 15 113 1.6 3.2 0.00 0.05 0.00 83 1006.7
20260506143117 15 45 4.8 6.4 0.00 0.05 0.00 83 1006.7
20260506142117 15 0 1.6 3.2 0.00 0.05 0.00 83 1006.9
20260506141117 15 45 3.2 4.8 0.00 0.05 0.00 83 1006.9
20260506140117 15 90 1.6 3.2 0.00 0.05 0.00 84 1007.1
20260506135117 15 90 3.2 8.0 0.00 0.05 0.00 84 1006.9
20260506134117 15 68 1.6 1.6 0.00 0.05 0.00 84 1006.9
20260506133117 15 0.0 0.0 0.00 0.05 0.00 85 1007.0
20260506132117 15 23 3.2 4.8 0.00 0.05 0.00 85 1007.2
20260506131117 15 180 1.6 3.2 0.00 0.05 0.00 86 1007.4
20260506130117 14 158 3.2 6.4 0.00 0.05 0.00 87 1007.7
20260506125117 14 135 1.6 3.2 0.00 0.05 0.00 87 1007.6
20260506124117 13 0.0 0.0 0.00 0.05 0.00 88 1007.1
20260506123117 13 0.0 0.0 0.00 0.05 0.00 89 1007.2
20260506122117 13 0.0 0.0 0.00 0.05 0.00 89 1006.9
20260506121137 13 0.0 0.0 0.00 0.05 0.00 89 1007.0
20260506120117 13 0.0 0.0 0.00 0.05 0.00 90 1007.4
20260506115117 12 0.0 0.0 0.00 0.05 0.00 90 1007.3
20260506114117 12 0.0 0.0 0.00 0.05 0.00 90 1007.3
20260506113117 12 0.0 0.0 0.00 0.05 0.00 91 1007.4
20260506112117 12 0.0 0.0 0.00 0.05 0.00 92 1007.3
20260506111117 11 0.0 0.0 0.00 0.05 0.00 92 1007.4
20260506110137 11 0.0 0.0 0.00 0.05 0.00 92 1007.3
20260506105137 11 0.0 0.0 0.00 0.05 0.00 92 1007.2
20260506104117 11 0.0 0.0 0.00 0.05 0.00 92 1007.4
20260506103117 11 0.0 0.0 0.00 0.05 0.00 92 1007.3
20260506102117 11 0.0 0.0 0.00 0.05 0.00 92 1007.4
20260506101117 11 113 1.6 3.2 0.00 0.05 0.00 91 1007.5
20260506100117 11 0.0 0.0 0.00 0.05 0.00 90 1007.7
20260506095117 11 0.0 0.0 0.00 0.05 0.00 90 1007.4
20260506094137 11 0.0 0.0 0.00 0.05 0.00 89 1007.3
20260506093117 12 0.0 0.0 0.00 0.05 0.00 89 1007.7
20260506092117 12 0.0 0.0 0.00 0.05 0.00 88 1007.6
20260506091117 12 0.0 1.6 0.00 0.05 0.00 88 1007.8
20260506090117 12 0.0 0.0 0.00 0.05 0.00 87 1007.7
20260506085117 12 0.0 0.0 0.00 0.05 0.00 86 1007.9
20260506084117 13 0.0 0.0 0.00 0.05 0.00 85 1008.0
20260506083137 13 0.0 0.0 0.00 0.05 0.00 85 1008.0
20260506082117 13 0.0 0.0 0.00 0.05 0.00 85 1008.2
20260506081137 13 0.0 0.0 0.00 0.05 0.00 85 1008.2
20260506080117 13 0.0 0.0 0.00 0.05 0.00 85 1008.1
20260506073118 13 0.0 0.0 0.00 0.05 0.00 83 1008.5
20260506072117 13 0.0 0.0 0.00 0.05 0.00 84 1008.3
20260506071137 13 0.0 0.0 0.00 0.05 0.00 84 1008.3
20260506070117 13 0.0 0.0 0.00 0.05 0.00 84 1008.3
20260506062137 15 0.0 0.0 0.00 0.05 0.00 81 1008.0
20260506061117 15 0.0 0.0 0.00 0.05 0.00 80 1008.2
20260506060218 15 338 1.6 3.2 0.00 0.05 0.00 79 1008.1
20260506051118 15 270 1.6 4.8 0.00 0.05 0.00 79 1008.3
20260506050117 15 0.0 1.6 0.00 0.05 0.00 79 1008.3
20260506045117 15 0.0 1.6 0.00 0.05 0.00 79 1008.3
20260506044117 16 0.0 1.6 0.00 0.05 0.00 80 1008.4
20260506043117 15 0.0 1.6 0.00 0.05 0.00 80 1008.4
20260506042117 15 0.0 3.2 0.00 0.05 0.00 80 1008.0
20260506041117 16 0.0 0.0 0.00 0.05 0.00 81 1008.0
20260506040117 15 0.0 0.0 0.00 0.05 0.00 83 1007.9
20260506035116 15 0.0 0.0 0.00 0.05 0.05 84 1008.2
20260506034116 15 0.0 0.0 0.00 0.05 0.05 85 1008.1
20260506033116 15 0.0 1.6 0.00 0.05 0.05 87 1008.0
20260506032116 14 338 1.6 3.2 0.00 0.05 0.05 90 1008.0
20260506031116 14 0.0 0.0 0.00 0.05 0.05 92 1007.9
20260506030116 14 0.0 0.0 0.00 0.05 0.05 92 1008.0
20260506025116 14 0.0 0.0 0.00 0.05 0.05 92 1007.7
20260506024116 13 0.0 0.0 0.00 0.05 0.05 92 1007.9
20260506023116 13 0.0 0.0 0.00 0.05 0.05 92 1007.8
20260506022116 13 0.0 0.0 0.00 0.05 0.05 91 1007.8
20260506021136 13 0.0 0.0 0.00 0.05 0.05 90 1007.8
20260506020116 14 0.0 0.0 0.00 0.05 0.05 91 1007.8
20260506015116 14 0.0 0.0 0.00 0.05 0.05 90 1007.7
20260506014116 15 0.0 0.0 0.00 0.05 0.05 90 1007.6
20260506013116 14 0.0 0.0 0.00 0.05 0.05 89 1007.1
20260506012116 15 0.0 0.0 0.00 0.05 0.05 90 1007.3
20260506011116 14 0.0 0.0 0.00 0.05 0.05 89 1007.1
20260506010116 14 0.0 0.0 0.00 0.05 0.05 88 1007.2
20260506005136 14 0.0 0.0 0.00 0.05 0.05 87 1007.2
20260506004116 14 0.0 1.6 0.00 0.05 0.05 88 1007.2
20260506003117 14 0.0 0.0 0.00 0.05 0.05 89 1007.2
20260506002116 15 90 1.6 3.2 0.00 0.05 0.05 86 1007.0
20260506001136 15 0.0 1.6 0.03 0.05 0.05 89 1007.0
20260506000115 15 0.0 0.0 0.03 0.05 0.05 88 1007.0
20260505235216 15 0.0 0.0 0.03 0.05 0.05 87 1006.9
20260505234116 15 0.0 0.0 0.03 0.05 0.05 85 1006.7
20260505233116 15 0.0 0.0 0.03 0.05 0.05 87 1006.6
20260505232116 15 0.0 0.0 0.03 0.05 0.05 87 1006.5
20260505231116 16 0.0 0.0 0.00 0.03 0.03 88 1006.4
20260505230116 16 0 1.6 1.6 0.00 0.03 0.03 86 1005.6
20260505225115 16 203 1.6 3.2 0.00 0.03 0.03 87 1005.8
20260505224116 16 0.0 1.6 0.03 0.03 0.03 88 1005.9
20260505223136 16 0.0 0.0 0.03 0.03 0.03 83 1005.5
20260505222116 15 0.0 0.0 0.03 0.03 0.03 83 1005.0
20260505221116 16 90 1.6 1.6 0.03 0.03 0.03 78 1004.5
20260505220136 17 135 3.2 8.0 0.03 0.03 0.03 77 1004.5
20260505215116 17 0.0 1.6 0.03 0.03 0.03 77 1004.0
20260505214116 17 270 3.2 4.8 0.00 0.00 0.00 76 1004.8
20260505213136 18 338 6.4 9.7 0.00 0.00 0.00 73 1004.9
20260505212116 20 248 6.4 14.5 0.00 0.00 0.00 64 1005.0
20260505211116 23 293 9.7 24.1 0.00 0.00 0.00 45 1004.7
20260505210116 23 293 3.2 4.8 0.00 0.00 0.00 44 1003.0